Location: Alpine
(43.1636°N, 111.0180°W)
Time: 17:07:24
(UTC+00:00)

Envisat - Visible Passes

Search period start: 24 January 2022 00:00
Search period end: 03 February 2022 00:00
Orbit: 764 x 766 km, 98.2° (Epoch: 23 January)

Date Brightness Start Highest point End Pass type
(mag) Time Alt. Az. Time Alt. Az. Time Alt. Az.
24 Jan 3.0 12:16:39 10° NNE 12:21:45 77° ESE 12:26:49 10° S visible
24 Jan 4.5 13:57:21 10° NNW 14:00:07 15° WNW 14:02:53 10° W visible
25 Jan 4.4 11:40:07 10° NNE 11:44:45 35° E 11:49:22 10° SSE visible
25 Jan 3.7 13:19:17 10° N 13:23:40 30° WNW 13:28:01 10° SW visible
26 Jan 5.6 11:04:26 10° NE 11:07:34 16° E 11:10:40 10° SE visible
26 Jan 2.9 12:41:58 10° N 12:47:00 63° WNW 12:52:00 10° SSW visible
27 Jan 3.4 12:05:06 10° NNE 12:10:08 61° E 12:15:09 10° S visible
27 Jan 4.3 13:45:15 10° NNW 13:48:40 18° WNW 13:52:04 10° WSW visible
28 Jan 6.3 01:03:41 10° WSW 01:05:10 11° W 01:06:40 10° WNW visible
28 Jan 4.8 11:28:45 10° NE 11:33:05 28° E 11:37:23 10° SSE visible
28 Jan 3.5 13:07:30 10° N 13:12:09 37° WNW 13:16:46 10° SW visible
29 Jan 5.9 10:53:41 10° ENE 10:55:49 12° E 10:57:56 10° ESE visible
29 Jan 2.8 12:30:20 10° N 12:35:26 79° WNW 12:40:30 10° SSW visible
29 Jan 4.8 14:12:11 10° NW 14:13:35 11° WNW 14:14:59 10° WNW visible
30 Jan 3.9 11:53:36 10° NNE 11:58:31 47° E 12:03:23 10° S visible
30 Jan 4.1 13:33:18 10° NNW 13:37:12 23° WNW 13:41:05 10° WSW visible
31 Jan 5.2 11:17:28 10° NE 11:21:23 22° E 11:25:17 10° SE visible
31 Jan 3.2 12:55:46 10° N 13:00:37 46° WNW 13:05:27 10° SW visible
01 Feb 3.0 12:18:43 10° NNE 12:23:50 82° ESE 12:28:55 10° SSW visible
01 Feb 4.6 13:59:37 10° NNW 14:02:09 14° WNW 14:04:42 10° W visible
02 Feb 4.3 11:42:08 10° NNE 11:46:52 37° E 11:51:33 10° SSE visible
02 Feb 3.8 13:21:26 10° N 13:25:43 28° WNW 13:29:59 10° WSW visible
